contact:dominique.lefevre@mio.osupytheas.fr, maurice.libes@osupytheas.fr, didier.mallarino@osupytheas.fr
Project:EMSO http://www.emso-fr.org/EMSO-France
Depth: 2436.0 m
Title:EMSO Ligure Ouest : Data MII capteur MICROCAT
DateTime_Computer,Latitude,Longitude,Temperature,Conductivity,Pressure,DateTime_Instrument
DateTime_Computer,Latitude,Longitude,degC,S m-1,dbar,DateTime_Instrument
2020-04-21T00:01:45Z,42.805,6.029,13.2988,4.59987,2469.914,2020-4-21T02:02:25Z
2020-04-21T00:04:49Z,42.805,6.029,13.2999,4.59970,2469.96,2020-4-21T02:05:29Z
2020-04-21T00:07:52Z,42.805,6.029,13.2993,4.59998,2469.947,2020-4-21T02:08:32Z
2020-04-21T00:10:55Z,42.805,6.029,13.2984,4.59980,2469.937,2020-4-21T02:11:35Z
2020-04-21T00:13:58Z,42.805,6.029,13.2988,4.59991,2469.914,2020-4-21T02:14:38Z
2020-04-21T00:17:02Z,42.805,6.029,13.2999,4.59994,2469.96,2020-4-21T02:17:42Z
2020-04-21T00:20:05Z,42.805,6.029,13.2999,4.60002,2469.937,2020-4-21T02:20:45Z
2020-04-21T00:23:08Z,42.805,6.029,13.2997,4.59989,2469.9,2020-4-21T02:23:48Z
2020-04-21T00:26:11Z,42.805,6.029,13.3003,4.59993,2469.876,2020-4-21T02:26:51Z
2020-04-21T00:29:15Z,42.805,6.029,13.2996,4.59994,2469.914,2020-4-21T02:29:55Z
2020-04-21T00:32:18Z,42.805,6.029,13.3011,4.59989,2469.9,2020-4-21T02:32:58Z
2020-04-21T00:35:21Z,42.805,6.029,13.2990,4.59991,2469.9,2020-4-21T02:36:01Z
2020-04-21T00:38:24Z,42.805,6.029,13.2998,4.59991,2469.96,2020-4-21T02:39:04Z
2020-04-21T00:41:27Z,42.805,6.029,13.3000,4.60002,2469.923,2020-4-21T02:42:08Z
2020-04-21T00:44:31Z,42.805,6.029,13.2999,4.59991,2469.96,2020-4-21T02:45:11Z
2020-04-21T00:47:34Z,42.805,6.029,13.2998,4.60002,2469.96,2020-4-21T02:48:14Z
2020-04-21T00:50:37Z,42.805,6.029,13.2997,4.59988,2469.923,2020-4-21T02:51:17Z
2020-04-21T00:53:40Z,42.805,6.029,13.2993,4.59986,2469.937,2020-4-21T02:54:20Z
2020-04-21T00:56:44Z,42.805,6.029,13.2991,4.59982,2469.947,2020-4-21T02:57:24Z
2020-04-21T00:59:47Z,42.805,6.029,13.3000,4.59985,2469.914,2020-4-21T03:00:27Z
2020-04-21T01:02:50Z,42.805,6.029,13.2983,4.59993,2469.923,2020-4-21T03:03:30Z
2020-04-21T01:05:53Z,42.805,6.029,13.2995,4.60015,2469.937,2020-4-21T03:06:34Z
2020-04-21T01:08:57Z,42.805,6.029,13.3011,4.59996,2469.914,2020-4-21T03:09:37Z
2020-04-21T01:12:00Z,42.805,6.029,13.2995,4.59986,2469.937,2020-4-21T03:12:40Z
2020-04-21T01:15:03Z,42.805,6.029,13.2991,4.59990,2469.923,2020-4-21T03:15:43Z
2020-04-21T01:18:06Z,42.805,6.029,13.2993,4.59998,2469.923,2020-4-21T03:18:46Z
2020-04-21T01:21:10Z,42.805,6.029,13.2999,4.60020,2469.96,2020-4-21T03:21:50Z
2020-04-21T01:24:13Z,42.805,6.029,13.3016,4.60003,2469.937,2020-4-21T03:24:53Z
2020-04-21T01:27:16Z,42.805,6.029,13.3013,4.60003,2469.947,2020-4-21T03:27:56Z
2020-04-21T01:30:20Z,42.805,6.029,13.3013,4.59997,2469.937,2020-4-21T03:31:00Z
2020-04-21T01:33:23Z,42.805,6.029,13.3002,4.59996,2469.937,2020-4-21T03:34:03Z
2020-04-21T01:36:26Z,42.805,6.029,13.2998,4.59991,2469.937,2020-4-21T03:37:06Z
2020-04-21T01:39:29Z,42.805,6.029,13.3013,4.59992,2469.947,2020-4-21T03:40:09Z
2020-04-21T01:42:33Z,42.805,6.029,13.3003,4.59996,2469.96,2020-4-21T03:43:13Z
2020-04-21T01:45:36Z,42.805,6.029,13.3006,4.59996,2469.937,2020-4-21T03:46:16Z
2020-04-21T01:48:39Z,42.805,6.029,13.3000,4.59986,2469.937,2020-4-21T03:49:19Z
2020-04-21T01:51:42Z,42.805,6.029,13.3007,4.59994,2469.96,2020-4-21T03:52:23Z
2020-04-21T01:54:46Z,42.805,6.029,13.2996,4.59988,2469.937,2020-4-21T03:55:26Z
2020-04-21T01:57:49Z,42.805,6.029,13.3000,4.59981,2469.923,2020-4-21T03:58:29Z
2020-04-21T02:00:52Z,42.805,6.029,13.2995,4.59992,2469.96,2020-4-21T04:01:32Z
2020-04-21T02:03:55Z,42.805,6.029,13.2993,4.59995,2469.937,2020-4-21T04:04:35Z
2020-04-21T02:06:59Z,42.805,6.029,13.3000,4.59999,2469.923,2020-4-21T04:07:39Z
2020-04-21T02:10:02Z,42.805,6.029,13.3013,4.60007,2469.96,2020-4-21T04:10:42Z
2020-04-21T02:13:05Z,42.805,6.029,13.3016,4.60005,2469.937,2020-4-21T04:13:45Z
2020-04-21T02:16:09Z,42.805,6.029,13.3014,4.59993,2469.97,2020-4-21T04:16:49Z
2020-04-21T02:19:12Z,42.805,6.029,13.3020,4.59991,2469.937,2020-4-21T04:19:52Z
2020-04-21T02:22:15Z,42.805,6.029,13.3003,4.59998,2469.96,2020-4-21T04:22:55Z
2020-04-21T02:25:18Z,42.805,6.029,13.3004,4.59995,2469.937,2020-4-21T04:25:58Z
2020-04-21T02:28:21Z,42.805,6.029,13.2998,4.59991,2469.97,2020-4-21T04:29:01Z
2020-04-21T02:31:25Z,42.805,6.029,13.2998,4.59992,2469.947,2020-4-21T04:32:05Z
2020-04-21T02:34:28Z,42.805,6.029,13.2996,4.59991,2469.97,2020-4-21T04:35:08Z
2020-04-21T02:37:31Z,42.805,6.029,13.3011,4.60001,2469.97,2020-4-21T04:38:11Z
2020-04-21T02:40:34Z,42.805,6.029,13.3008,4.59991,2469.984,2020-4-21T04:41:14Z
2020-04-21T02:43:38Z,42.805,6.029,13.3007,4.60003,2469.984,2020-4-21T04:44:18Z
2020-04-21T02:46:41Z,42.805,6.029,13.3009,4.60014,2469.937,2020-4-21T04:47:21Z
2020-04-21T02:49:44Z,42.805,6.029,13.3027,4.60000,2469.96,2020-4-21T04:50:24Z
2020-04-21T02:52:47Z,42.805,6.029,13.2997,4.60005,2469.96,2020-4-21T04:53:27Z
2020-04-21T02:55:51Z,42.805,6.029,13.3004,4.59993,2469.984,2020-4-21T04:56:31Z
2020-04-21T02:58:54Z,42.805,6.029,13.3004,4.59997,2470.007,2020-4-21T04:59:34Z
2020-04-21T03:01:57Z,42.805,6.029,13.3013,4.59997,2469.97,2020-4-21T05:02:37Z
2020-04-21T03:05:00Z,42.805,6.029,13.3024,4.60008,2469.97,2020-4-21T05:05:40Z
2020-04-21T03:08:03Z,42.805,6.029,13.3014,4.59995,2469.97,2020-4-21T05:08:43Z
2020-04-21T03:11:07Z,42.805,6.029,13.3005,4.59995,2469.984,2020-4-21T05:11:47Z
2020-04-21T03:14:10Z,42.805,6.029,13.3009,4.59995,2469.993,2020-4-21T05:14:50Z
2020-04-21T03:17:13Z,42.805,6.029,13.3010,4.60005,2469.993,2020-4-21T05:17:53Z
2020-04-21T03:20:16Z,42.805,6.029,13.3002,4.59989,2470.03,2020-4-21T05:20:56Z
2020-04-21T03:23:20Z,42.805,6.029,13.3011,4.60004,2469.984,2020-4-21T05:24:00Z
2020-04-21T03:26:23Z,42.805,6.029,13.2986,4.59999,2469.993,2020-4-21T05:27:03Z
2020-04-21T03:29:26Z,42.805,6.029,13.3008,4.60001,2469.97,2020-4-21T05:30:06Z
2020-04-21T03:32:29Z,42.805,6.029,13.3006,4.59994,2469.993,2020-4-21T05:33:09Z
2020-04-21T03:35:33Z,42.805,6.029,13.3010,4.60006,2469.984,2020-4-21T05:36:13Z
2020-04-21T03:38:36Z,42.805,6.029,13.3017,4.60011,2469.993,2020-4-21T05:39:16Z
2020-04-21T03:41:39Z,42.805,6.029,13.3009,4.60006,2470.007,2020-4-21T05:42:19Z
2020-04-21T03:44:42Z,42.805,6.029,13.3004,4.60008,2470.03,2020-4-21T05:45:22Z
2020-04-21T03:47:45Z,42.805,6.029,13.3000,4.60014,2470.017,2020-4-21T05:48:26Z
2020-04-21T03:50:49Z,42.805,6.029,13.3004,4.60014,2469.984,2020-4-21T05:51:29Z
2020-04-21T03:53:52Z,42.805,6.029,13.3023,4.60006,2470.03,2020-4-21T05:54:32Z
2020-04-21T03:56:55Z,42.805,6.029,13.3004,4.60003,2469.993,2020-4-21T05:57:35Z
2020-04-21T03:59:59Z,42.805,6.029,13.3005,4.60006,2470.007,2020-4-21T06:00:39Z
2020-04-21T04:03:02Z,42.805,6.029,13.3009,4.59991,2469.97,2020-4-21T06:03:42Z
2020-04-21T04:06:05Z,42.805,6.029,13.2994,4.60001,2470.017,2020-4-21T06:06:45Z
2020-04-21T04:09:08Z,42.805,6.029,13.2984,4.60002,2470.017,2020-4-21T06:09:48Z
2020-04-21T04:12:12Z,42.805,6.029,13.3002,4.60009,2470.017,2020-4-21T06:12:52Z
2020-04-21T04:15:15Z,42.805,6.029,13.3026,4.60009,2470.04,2020-4-21T06:15:55Z
2020-04-21T04:18:18Z,42.805,6.029,13.3004,4.60003,2470.053,2020-4-21T06:18:58Z
2020-04-21T04:21:22Z,42.805,6.029,13.2990,4.60002,2470.04,2020-4-21T06:22:02Z
2020-04-21T04:24:25Z,42.805,6.029,13.3001,4.59997,2470.017,2020-4-21T06:25:05Z
2020-04-21T04:27:28Z,42.805,6.029,13.2990,4.59993,2470.017,2020-4-21T06:28:08Z
2020-04-21T04:30:31Z,42.805,6.029,13.3000,4.59999,2470.077,2020-4-21T06:31:11Z
2020-04-21T04:33:35Z,42.805,6.029,13.3006,4.60006,2470.053,2020-4-21T06:34:15Z
2020-04-21T04:36:38Z,42.805,6.029,13.3007,4.60004,2470.017,2020-4-21T06:37:18Z
2020-04-21T04:39:41Z,42.805,6.029,13.3012,4.60003,2470.053,2020-4-21T06:40:21Z
2020-04-21T04:42:44Z,42.805,6.029,13.3008,4.60008,2470.053,2020-4-21T06:43:24Z
2020-04-21T04:45:48Z,42.805,6.029,13.2999,4.60009,2470.063,2020-4-21T06:46:28Z
2020-04-21T04:48:51Z,42.805,6.029,13.2986,4.60007,2470.053,2020-4-21T06:49:31Z
2020-04-21T04:51:54Z,42.805,6.029,13.2997,4.60003,2470.053,2020-4-21T06:52:34Z
2020-04-21T04:54:57Z,42.805,6.029,13.3020,4.59991,2470.077,2020-4-21T06:55:37Z
2020-04-21T04:58:00Z,42.805,6.029,13.2989,4.59999,2470.053,2020-4-21T06:58:40Z
2020-04-21T05:01:04Z,42.805,6.029,13.3024,4.60016,2470.063,2020-4-21T07:01:44Z
2020-04-21T05:04:07Z,42.805,6.029,13.3011,4.60001,2470.063,2020-4-21T07:04:47Z
2020-04-21T05:07:10Z,42.805,6.029,13.3006,4.60001,2470.04,2020-4-21T07:07:50Z
2020-04-21T05:10:13Z,42.805,6.029,13.3019,4.59991,2470.063,2020-4-21T07:10:53Z
2020-04-21T05:13:17Z,42.805,6.029,13.3021,4.60004,2470.063,2020-4-21T07:13:57Z
2020-04-21T05:16:20Z,42.805,6.029,13.3010,4.60019,2470.063,2020-4-21T07:17:00Z
2020-04-21T05:19:23Z,42.805,6.029,13.3013,4.60026,2470.1,2020-4-21T07:20:03Z
2020-04-21T05:22:26Z,42.805,6.029,13.3011,4.60003,2470.04,2020-4-21T07:23:06Z
2020-04-21T05:25:30Z,42.805,6.029,13.3000,4.60016,2470.087,2020-4-21T07:26:10Z
2020-04-21T05:28:33Z,42.805,6.029,13.3033,4.60003,2470.1,2020-4-21T07:29:13Z
2020-04-21T05:31:36Z,42.805,6.029,13.2990,4.60005,2470.1,2020-4-21T07:32:16Z
2020-04-21T05:34:39Z,42.805,6.029,13.3005,4.60006,2470.11,2020-4-21T07:35:19Z
2020-04-21T05:37:43Z,42.805,6.029,13.3005,4.59992,2470.077,2020-4-21T07:38:23Z
2020-04-21T05:40:46Z,42.805,6.029,13.2998,4.60000,2470.077,2020-4-21T07:41:26Z
2020-04-21T05:43:49Z,42.805,6.029,13.2996,4.59996,2470.087,2020-4-21T07:44:29Z
2020-04-21T05:46:52Z,42.805,6.029,13.3005,4.59993,2470.087,2020-4-21T07:47:32Z
2020-04-21T05:49:56Z,42.805,6.029,13.2999,4.60002,2470.077,2020-4-21T07:50:36Z
2020-04-21T05:52:59Z,42.805,6.029,13.2996,4.60004,2470.1,2020-4-21T07:53:39Z
2020-04-21T05:56:02Z,42.805,6.029,13.2998,4.59991,2470.1,2020-4-21T07:56:42Z
2020-04-21T05:59:05Z,42.805,6.029,13.2990,4.60021,2470.11,2020-4-21T07:59:45Z
2020-04-21T06:02:09Z,42.805,6.029,13.2996,4.59996,2470.11,2020-4-21T08:02:49Z
2020-04-21T06:05:12Z,42.805,6.029,13.3021,4.60001,2470.1,2020-4-21T08:05:52Z
2020-04-21T06:08:15Z,42.805,6.029,13.2994,4.59997,2470.087,2020-4-21T08:08:55Z
2020-04-21T06:11:18Z,42.805,6.029,13.2997,4.59999,2470.1,2020-4-21T08:11:58Z
2020-04-21T06:14:22Z,42.805,6.029,13.2996,4.59992,2470.11,2020-4-21T08:15:02Z
2020-04-21T06:17:25Z,42.805,6.029,13.2997,4.59999,2470.087,2020-4-21T08:18:05Z
2020-04-21T06:20:28Z,42.805,6.029,13.2998,4.60008,2470.124,2020-4-21T08:21:08Z
2020-04-21T06:23:31Z,42.805,6.029,13.2998,4.60014,2470.133,2020-4-21T08:24:11Z
2020-04-21T06:26:35Z,42.805,6.029,13.3022,4.59999,2470.11,2020-4-21T08:27:15Z
2020-04-21T06:29:38Z,42.805,6.029,13.2997,4.60002,2470.087,2020-4-21T08:30:18Z
2020-04-21T06:32:41Z,42.805,6.029,13.3019,4.59997,2470.11,2020-4-21T08:33:21Z
2020-04-21T06:35:44Z,42.805,6.029,13.2996,4.60005,2470.124,2020-4-21T08:36:24Z
2020-04-21T06:38:48Z,42.805,6.029,13.3004,4.60013,2470.11,2020-4-21T08:39:28Z
2020-04-21T06:41:51Z,42.805,6.029,13.3015,4.59996,2470.087,2020-4-21T08:42:31Z
2020-04-21T06:44:54Z,42.805,6.029,13.2998,4.59998,2470.087,2020-4-21T08:45:34Z
2020-04-21T06:47:57Z,42.805,6.029,13.2993,4.60001,2470.1,2020-4-21T08:48:37Z
2020-04-21T06:51:01Z,42.805,6.029,13.3004,4.59996,2470.087,2020-4-21T08:51:41Z
2020-04-21T06:54:04Z,42.805,6.029,13.3009,4.59991,2470.1,2020-4-21T08:54:44Z
2020-04-21T06:57:07Z,42.805,6.029,13.2996,4.59996,2470.1,2020-4-21T08:57:47Z
2020-04-21T07:00:10Z,42.805,6.029,13.3011,4.59989,2470.11,2020-4-21T09:00:50Z
2020-04-21T07:03:14Z,42.805,6.029,13.3014,4.59999,2470.077,2020-4-21T09:03:54Z
2020-04-21T07:06:17Z,42.805,6.029,13.2998,4.60010,2470.11,2020-4-21T09:06:57Z
2020-04-21T07:09:20Z,42.805,6.029,13.3007,4.59990,2470.1,2020-4-21T09:10:00Z
2020-04-21T07:12:23Z,42.805,6.029,13.3003,4.59994,2470.063,2020-4-21T09:13:03Z
2020-04-21T07:15:27Z,42.805,6.029,13.2996,4.59997,2470.124,2020-4-21T09:16:07Z
2020-04-21T07:18:30Z,42.805,6.029,13.2995,4.59991,2470.077,2020-4-21T09:19:10Z
2020-04-21T07:21:33Z,42.805,6.029,13.2992,4.59998,2470.087,2020-4-21T09:22:13Z
2020-04-21T07:24:36Z,42.805,6.029,13.2993,4.59997,2470.087,2020-4-21T09:25:16Z
2020-04-21T07:27:39Z,42.805,6.029,13.3007,4.60006,2470.087,2020-4-21T09:28:20Z
2020-04-21T07:30:43Z,42.805,6.029,13.3004,4.59998,2470.087,2020-4-21T09:31:23Z
2020-04-21T07:33:46Z,42.805,6.029,13.3000,4.60001,2470.063,2020-4-21T09:34:26Z
2020-04-21T07:36:49Z,42.805,6.029,13.2990,4.59998,2470.087,2020-4-21T09:37:29Z
2020-04-21T07:39:52Z,42.805,6.029,13.3000,4.60001,2470.087,2020-4-21T09:40:32Z
2020-04-21T07:42:56Z,42.805,6.029,13.2998,4.59998,2470.1,2020-4-21T09:43:36Z
2020-04-21T07:45:59Z,42.805,6.029,13.2998,4.59996,2470.087,2020-4-21T09:46:39Z
2020-04-21T07:49:02Z,42.805,6.029,13.2995,4.59993,2470.1,2020-4-21T09:49:42Z
2020-04-21T07:52:05Z,42.805,6.029,13.2999,4.60009,2470.077,2020-4-21T09:52:45Z
2020-04-21T07:55:09Z,42.805,6.029,13.3014,4.59998,2470.1,2020-4-21T09:55:49Z
2020-04-21T07:58:12Z,42.805,6.029,13.2999,4.59992,2470.063,2020-4-21T09:58:52Z
2020-04-21T08:01:15Z,42.805,6.029,13.2996,4.59994,2470.063,2020-4-21T10:01:55Z
2020-04-21T08:04:18Z,42.805,6.029,13.2994,4.60003,2470.087,2020-4-21T10:04:58Z
2020-04-21T08:07:21Z,42.805,6.029,13.2996,4.60008,2470.063,2020-4-21T10:08:02Z
2020-04-21T08:10:25Z,42.805,6.029,13.2996,4.59992,2470.063,2020-4-21T10:11:05Z
2020-04-21T08:13:28Z,42.805,6.029,13.3001,4.59991,2470.087,2020-4-21T10:14:08Z
2020-04-21T08:16:31Z,42.805,6.029,13.2993,4.60003,2470.087,2020-4-21T10:17:11Z
2020-04-21T08:19:34Z,42.805,6.029,13.3012,4.59992,2470.087,2020-4-21T10:20:15Z
2020-04-21T08:22:38Z,42.805,6.029,13.2996,4.59984,2470.087,2020-4-21T10:23:18Z
2020-04-21T08:25:41Z,42.805,6.029,13.2991,4.60003,2470.053,2020-4-21T10:26:21Z
2020-04-21T08:28:44Z,42.805,6.029,13.2991,4.60001,2470.063,2020-4-21T10:29:24Z
2020-04-21T08:31:47Z,42.805,6.029,13.3006,4.59994,2470.077,2020-4-21T10:32:27Z
2020-04-21T08:34:51Z,42.805,6.029,13.2989,4.60003,2470.063,2020-4-21T10:35:31Z
2020-04-21T08:37:54Z,42.805,6.029,13.2990,4.59989,2470.087,2020-4-21T10:38:34Z
2020-04-21T08:40:57Z,42.805,6.029,13.3003,4.59993,2470.063,2020-4-21T10:41:37Z
2020-04-21T08:44:00Z,42.805,6.029,13.2988,4.59994,2470.077,2020-4-21T10:44:40Z
2020-04-21T08:47:04Z,42.805,6.029,13.2993,4.60017,2470.04,2020-4-21T10:47:44Z
2020-04-21T08:50:07Z,42.805,6.029,13.3000,4.59988,2470.063,2020-4-21T10:50:47Z
2020-04-21T08:53:10Z,42.805,6.029,13.2997,4.59988,2470.053,2020-4-21T10:53:50Z
2020-04-21T08:56:13Z,42.805,6.029,13.3011,4.59997,2470.063,2020-4-21T10:56:53Z
2020-04-21T08:59:16Z,42.805,6.029,13.2996,4.60001,2470.063,2020-4-21T10:59:57Z
2020-04-21T09:02:20Z,42.805,6.029,13.2996,4.59995,2470.017,2020-4-21T11:03:00Z
2020-04-21T09:05:23Z,42.805,6.029,13.2996,4.59995,2470.04,2020-4-21T11:06:03Z
2020-04-21T09:08:26Z,42.805,6.029,13.3003,4.59981,2470.04,2020-4-21T11:09:06Z
2020-04-21T09:11:29Z,42.805,6.029,13.3000,4.59997,2470.04,2020-4-21T11:12:10Z
2020-04-21T09:14:33Z,42.805,6.029,13.2992,4.59990,2470.053,2020-4-21T11:15:13Z
2020-04-21T09:17:36Z,42.805,6.029,13.2998,4.59999,2470.04,2020-4-21T11:18:16Z
2020-04-21T09:20:39Z,42.805,6.029,13.2998,4.59996,2470.03,2020-4-21T11:21:19Z
2020-04-21T09:23:42Z,42.805,6.029,13.2992,4.59993,2470.017,2020-4-21T11:24:22Z
2020-04-21T09:26:46Z,42.805,6.029,13.3006,4.59999,2470.03,2020-4-21T11:27:26Z
2020-04-21T09:29:49Z,42.805,6.029,13.2990,4.59993,2470.003,2020-4-21T11:30:29Z
2020-04-21T09:32:52Z,42.805,6.029,13.2998,4.59994,2470.017,2020-4-21T11:33:32Z
2020-04-21T09:35:55Z,42.805,6.029,13.3006,4.59983,2470.067,2020-4-21T11:36:35Z
2020-04-21T09:38:59Z,42.805,6.029,13.2996,4.59993,2470.04,2020-4-21T11:39:39Z
2020-04-21T09:42:02Z,42.805,6.029,13.2991,4.59991,2470.017,2020-4-21T11:42:42Z
2020-04-21T09:45:05Z,42.805,6.029,13.2991,4.59996,2469.993,2020-4-21T11:45:45Z
2020-04-21T09:48:08Z,42.805,6.029,13.2992,4.59990,2470.03,2020-4-21T11:48:48Z
2020-04-21T09:51:11Z,42.805,6.029,13.2994,4.59996,2469.993,2020-4-21T11:51:51Z
2020-04-21T09:54:15Z,42.805,6.029,13.2995,4.59991,2470.03,2020-4-21T11:54:55Z
2020-04-21T09:57:18Z,42.805,6.029,13.2993,4.59985,2469.984,2020-4-21T11:57:58Z
2020-04-21T10:00:21Z,42.805,6.029,13.2993,4.59981,2470.007,2020-4-21T12:01:01Z
2020-04-21T10:03:25Z,42.805,6.029,13.2989,4.59981,2470.03,2020-4-21T12:04:05Z
2020-04-21T10:06:28Z,42.805,6.029,13.2983,4.59992,2470.03,2020-4-21T12:07:08Z
2020-04-21T10:09:31Z,42.805,6.029,13.2991,4.59988,2469.993,2020-4-21T12:10:11Z
2020-04-21T10:12:34Z,42.805,6.029,13.2989,4.59989,2470.007,2020-4-21T12:13:14Z
2020-04-21T10:15:37Z,42.805,6.029,13.3009,4.59992,2469.993,2020-4-21T12:16:18Z
2020-04-21T10:18:41Z,42.805,6.029,13.2990,4.59988,2469.97,2020-4-21T12:19:21Z
2020-04-21T10:21:44Z,42.805,6.029,13.2997,4.59991,2469.984,2020-4-21T12:22:24Z
2020-04-21T10:24:47Z,42.805,6.029,13.2993,4.59986,2469.97,2020-4-21T12:25:27Z
2020-04-21T10:27:50Z,42.805,6.029,13.2991,4.59986,2469.97,2020-4-21T12:28:31Z
2020-04-21T10:30:54Z,42.805,6.029,13.2983,4.59989,2469.97,2020-4-21T12:31:34Z
2020-04-21T10:33:57Z,42.805,6.029,13.2977,4.59978,2469.993,2020-4-21T12:34:37Z
2020-04-21T10:37:00Z,42.805,6.029,13.2993,4.59986,2469.96,2020-4-21T12:37:40Z
2020-04-21T10:40:03Z,42.805,6.029,13.2996,4.59998,2469.96,2020-4-21T12:40:43Z
2020-04-21T10:43:07Z,42.805,6.029,13.2995,4.60000,2469.947,2020-4-21T12:43:47Z
2020-04-21T10:46:10Z,42.805,6.029,13.2987,4.60005,2469.947,2020-4-21T12:46:50Z
2020-04-21T10:49:13Z,42.805,6.029,13.2990,4.59984,2469.984,2020-4-21T12:49:53Z
2020-04-21T10:52:16Z,42.805,6.029,13.2983,4.59993,2469.984,2020-4-21T12:52:57Z
2020-04-21T10:55:20Z,42.805,6.029,13.2982,4.59987,2469.97,2020-4-21T12:56:00Z
2020-04-21T10:58:23Z,42.805,6.029,13.2993,4.59987,2469.956,2020-4-21T12:59:03Z
2020-04-21T11:01:26Z,42.805,6.029,13.2991,4.59990,2469.993,2020-4-21T13:02:06Z
2020-04-21T11:04:29Z,42.805,6.029,13.2987,4.60001,2469.97,2020-4-21T13:05:09Z
2020-04-21T11:07:33Z,42.805,6.029,13.2994,4.59993,2469.947,2020-4-21T13:08:13Z
2020-04-21T11:10:36Z,42.805,6.029,13.2992,4.59989,2469.947,2020-4-21T13:11:16Z
2020-04-21T11:13:39Z,42.805,6.029,13.3004,4.59992,2469.97,2020-4-21T13:14:19Z
2020-04-21T11:16:43Z,42.805,6.029,13.2999,4.59990,2469.947,2020-4-21T13:17:23Z
2020-04-21T11:19:46Z,42.805,6.029,13.2991,4.60006,2469.96,2020-4-21T13:20:26Z
2020-04-21T11:22:49Z,42.805,6.029,13.3000,4.60000,2469.97,2020-4-21T13:23:29Z
2020-04-21T11:25:52Z,42.805,6.029,13.2993,4.59990,2469.97,2020-4-21T13:26:32Z
2020-04-21T11:28:55Z,42.805,6.029,13.2980,4.59983,2469.96,2020-4-21T13:29:35Z
2020-04-21T11:31:59Z,42.805,6.029,13.3016,4.59988,2469.984,2020-4-21T13:32:39Z
2020-04-21T11:35:02Z,42.805,6.029,13.2993,4.59985,2469.97,2020-4-21T13:35:42Z
2020-04-21T11:38:05Z,42.805,6.029,13.2985,4.59990,2469.947,2020-4-21T13:38:45Z
2020-04-21T11:41:08Z,42.805,6.029,13.2993,4.59991,2469.947,2020-4-21T13:41:48Z
2020-04-21T11:44:12Z,42.805,6.029,13.2993,4.59989,2469.923,2020-4-21T13:44:52Z
2020-04-21T11:47:15Z,42.805,6.029,13.2994,4.59989,2469.947,2020-4-21T13:47:55Z
2020-04-21T11:50:18Z,42.805,6.029,13.2992,4.59988,2469.914,2020-4-21T13:50:58Z
2020-04-21T11:53:21Z,42.805,6.029,13.2990,4.59996,2469.923,2020-4-21T13:54:01Z
2020-04-21T11:56:25Z,42.805,6.029,13.2996,4.59983,2469.947,2020-4-21T13:57:05Z
2020-04-21T11:59:28Z,42.805,6.029,13.2990,4.59990,2469.914,2020-4-21T14:00:08Z
2020-04-21T12:02:31Z,42.805,6.029,13.3000,4.59999,2469.96,2020-4-21T14:03:11Z
2020-04-21T12:05:34Z,42.805,6.029,13.2996,4.59986,2469.9,2020-4-21T14:06:14Z
2020-04-21T12:08:37Z,42.805,6.029,13.3005,4.59987,2469.947,2020-4-21T14:09:18Z
2020-04-21T12:11:41Z,42.805,6.029,13.2984,4.59991,2469.96,2020-4-21T14:12:21Z
2020-04-21T12:14:44Z,42.805,6.029,13.2994,4.59990,2469.96,2020-4-21T14:15:24Z
2020-04-21T12:17:47Z,42.805,6.029,13.2990,4.59992,2469.97,2020-4-21T14:18:27Z
2020-04-21T12:20:50Z,42.805,6.029,13.2994,4.59992,2469.923,2020-4-21T14:21:30Z
2020-04-21T12:23:54Z,42.805,6.029,13.2998,4.59996,2469.937,2020-4-21T14:24:34Z
2020-04-21T12:26:57Z,42.805,6.029,13.2998,4.59992,2469.937,2020-4-21T14:27:37Z
2020-04-21T12:30:00Z,42.805,6.029,13.2993,4.59998,2469.923,2020-4-21T14:30:40Z
2020-04-21T12:33:03Z,42.805,6.029,13.3022,4.59999,2469.984,2020-4-21T14:33:43Z
2020-04-21T12:36:07Z,42.805,6.029,13.2999,4.60002,2469.937,2020-4-21T14:36:47Z
2020-04-21T12:39:10Z,42.805,6.029,13.2999,4.59990,2470.007,2020-4-21T14:39:50Z
2020-04-21T12:42:13Z,42.805,6.029,13.3008,4.59992,2469.923,2020-4-21T14:42:53Z
2020-04-21T12:45:16Z,42.805,6.029,13.3000,4.60014,2469.947,2020-4-21T14:45:56Z
2020-04-21T12:48:20Z,42.805,6.029,13.2991,4.60013,2469.923,2020-4-21T14:49:00Z
2020-04-21T12:51:23Z,42.805,6.029,13.3021,4.60003,2469.937,2020-4-21T14:52:03Z
2020-04-21T12:54:26Z,42.805,6.029,13.3009,4.60019,2469.937,2020-4-21T14:55:06Z
2020-04-21T12:57:29Z,42.805,6.029,13.3007,4.60014,2469.923,2020-4-21T14:58:09Z
2020-04-21T13:00:33Z,42.805,6.029,13.3010,4.60016,2469.96,2020-4-21T15:01:13Z
2020-04-21T13:03:36Z,42.805,6.029,13.3002,4.60031,2469.923,2020-4-21T15:04:16Z
2020-04-21T13:06:39Z,42.805,6.029,13.3011,4.60000,2469.937,2020-4-21T15:07:19Z
2020-04-21T13:09:42Z,42.805,6.029,13.3031,4.60003,2469.9,2020-4-21T15:10:22Z
2020-04-21T13:12:46Z,42.805,6.029,13.3002,4.59995,2469.937,2020-4-21T15:13:26Z
2020-04-21T13:15:49Z,42.805,6.029,13.2982,4.59993,2469.947,2020-4-21T15:16:29Z
2020-04-21T13:18:52Z,42.805,6.029,13.3008,4.60034,2469.937,2020-4-21T15:19:32Z
2020-04-21T13:21:55Z,42.805,6.029,13.3033,4.60009,2469.947,2020-4-21T15:22:36Z
2020-04-21T13:24:59Z,42.805,6.029,13.3013,4.60033,2469.933,2020-4-21T15:25:39Z
2020-04-21T13:28:02Z,42.805,6.029,13.3054,4.60011,2469.914,2020-4-21T15:28:42Z
2020-04-21T13:31:05Z,42.805,6.029,13.3004,4.60014,2469.9,2020-4-21T15:31:45Z
2020-04-21T13:34:08Z,42.805,6.029,13.3005,4.60010,2469.923,2020-4-21T15:34:48Z
2020-04-21T13:37:12Z,42.805,6.029,13.3009,4.60006,2469.923,2020-4-21T15:37:52Z
2020-04-21T13:40:15Z,42.805,6.029,13.3013,4.60001,2469.914,2020-4-21T15:40:55Z
2020-04-21T13:43:18Z,42.805,6.029,13.3021,4.60014,2469.914,2020-4-21T15:43:58Z
2020-04-21T13:46:22Z,42.805,6.029,13.2999,4.60020,2469.937,2020-4-21T15:47:02Z
2020-04-21T13:49:25Z,42.805,6.029,13.3045,4.60011,2469.937,2020-4-21T15:50:05Z
2020-04-21T13:52:28Z,42.805,6.029,13.3029,4.60014,2469.914,2020-4-21T15:53:08Z
2020-04-21T13:55:31Z,42.805,6.029,13.3038,4.60011,2469.96,2020-4-21T15:56:11Z
2020-04-21T13:58:34Z,42.805,6.029,13.3024,4.60010,2469.9,2020-4-21T15:59:14Z
2020-04-21T14:01:38Z,42.805,6.029,13.3021,4.60003,2469.951,2020-4-21T16:02:18Z
2020-04-21T14:04:41Z,42.805,6.029,13.3053,4.60002,2469.923,2020-4-21T16:05:21Z
2020-04-21T14:07:44Z,42.805,6.029,13.3009,4.59999,2469.984,2020-4-21T16:08:24Z
2020-04-21T14:10:47Z,42.805,6.029,13.3000,4.60011,2469.923,2020-4-21T16:11:27Z
2020-04-21T14:13:51Z,42.805,6.029,13.3009,4.59995,2469.96,2020-4-21T16:14:31Z
2020-04-21T14:16:54Z,42.805,6.029,13.3017,4.60004,2469.937,2020-4-21T16:17:34Z
2020-04-21T14:19:57Z,42.805,6.029,13.3026,4.59990,2469.937,2020-4-21T16:20:37Z
2020-04-21T14:23:00Z,42.805,6.029,13.3002,4.60012,2469.947,2020-4-21T16:23:40Z
2020-04-21T14:26:03Z,42.805,6.029,13.3009,4.60006,2469.947,2020-4-21T16:26:44Z
2020-04-21T14:29:07Z,42.805,6.029,13.3025,4.59998,2469.97,2020-4-21T16:29:47Z
2020-04-21T14:32:10Z,42.805,6.029,13.3020,4.60002,2469.96,2020-4-21T16:32:50Z
2020-04-21T14:35:13Z,42.805,6.029,13.3007,4.60016,2469.923,2020-4-21T16:35:53Z
2020-04-21T14:38:17Z,42.805,6.029,13.3010,4.60014,2469.923,2020-4-21T16:38:57Z
2020-04-21T14:41:20Z,42.805,6.029,13.3010,4.60008,2469.923,2020-4-21T16:42:00Z
2020-04-21T14:44:24Z,42.805,6.029,13.3008,4.60001,2469.923,2020-4-21T16:45:04Z
2020-04-21T14:47:27Z,42.805,6.029,13.3033,4.60005,2469.96,2020-4-21T16:48:07Z
2020-04-21T14:50:30Z,42.805,6.029,13.3011,4.60011,2469.947,2020-4-21T16:51:10Z
2020-04-21T14:53:33Z,42.805,6.029,13.3016,4.59996,2469.984,2020-4-21T16:54:13Z
2020-04-21T14:56:37Z,42.805,6.029,13.3014,4.60019,2469.97,2020-4-21T16:57:17Z
2020-04-21T14:59:40Z,42.805,6.029,13.3036,4.60001,2469.923,2020-4-21T17:00:20Z
2020-04-21T15:02:43Z,42.805,6.029,13.3018,4.60009,2469.96,2020-4-21T17:03:23Z
2020-04-21T15:05:46Z,42.805,6.029,13.3029,4.60009,2470.007,2020-4-21T17:06:26Z
2020-04-21T15:08:50Z,42.805,6.029,13.3030,4.60007,2469.96,2020-4-21T17:09:30Z
2020-04-21T15:11:53Z,42.805,6.029,13.3018,4.59993,2469.947,2020-4-21T17:12:33Z
2020-04-21T15:14:56Z,42.805,6.029,13.3004,4.60009,2469.97,2020-4-21T17:15:36Z